Weather History for PHNL - December, 2013

Change the Weather History Date:

Monday, December 2, 2013

  Actual Average Record
Temperature  
Mean Temperature 74 °F 76 °F  
Max Temperature 79 °F 82 °F 87 °F (1983)
Min Temperature 69 °F 70 °F 59 °F (1956)
Degree Days  
Heating Degree Days 0 0  
Month to date heating degree days 0 0  
Since 1 July heating degree days 0 0  
Cooling Degree Days 9 11  
Month to date cooling degree days 17 22  
Year to date cooling degree days 4154 4348  
Growing Degree Days 24 (Base 50)    
Moisture  
Dew Point 68 °F    
Average Humidity 82    
Maximum Humidity 97    
Minimum Humidity 67    
Precipitation  
Precipitation T in 0.07 in 0.64 in (2008)
Month to date precipitation 1.45 0.15  
Year to date precipitation 13.99 14.01  
Snow  
Snow 0.00 in - - ()
Month to date snowfall 0.0  
Since 1 July snowfall 0.0  
Snow Depth 0.00 in    
Sea Level Pressure  
Sea Level Pressure 29.97 in    
Wind  
Wind Speed 3 mph (East)    
Max Wind Speed 8 mph    
Max Gust Speed 13 mph    
Visibility 10 miles    
Events      
T = Trace of Precipitation, MM = Missing Value Source: NWS Daily Summary

Daily Weather History Graph

Daily Weather History Graph

Search for Another Location

Airport or City:

Trip Planner

Search our weather history database for the weather conditions in past years. The results will help you decide how hot, cold, wet, or windy it might be!

Date:

Astronomy

Dec. 02, 2013 Rise Set
Actual Time 6:53 AM HST 5:48 PM HST
Civil Twilight 6:29 AM HST 6:12 PM HST
Nautical Twilight 6:02 AM HST 6:40 PM HST
Astronomical Twilight 5:35 AM HST 7:07 PM HST
Moon 6:35 AM HST (12/2) 5:59 PM HST (12/2)
Length of Visible Light 11h 43m
Length of Day
10h 55m
Waning Crescent, 0% of the Moon is Illuminated
Dec 2
Waning Crescent
Dec 2
New
Dec 9
First Quarter
Dec 16
Full
Dec 25
Last Quarter

Hourly Weather History & Observations

Time (HST) Temp. Dew Point Humidity Pressure Visibility Wind Dir Wind Speed Gust Speed Precip Events Conditions
12:53 AM 69.1 °F 66.9 °F 93% 29.98 in 10.0 mi North 3.5 mph - 0.00 in   Overcast
1:53 AM 69.1 °F 68.0 °F 96% 29.97 in 10.0 mi NNW 3.5 mph - N/A   Overcast
2:53 AM 69.1 °F 68.0 °F 96% 29.96 in 10.0 mi Calm Calm - N/A   Overcast
3:53 AM 69.1 °F 68.0 °F 96% 29.96 in 10.0 mi North 3.5 mph - 0.00 in   Overcast
4:53 AM 69.1 °F 68.0 °F 96% 29.96 in 10.0 mi Calm Calm - N/A   Mostly Cloudy
5:53 AM 70.0 °F 68.0 °F 93% 29.96 in 10.0 mi Variable 3.5 mph - N/A   Overcast
6:53 AM 69.1 °F 68.0 °F 96% 29.98 in 10.0 mi Calm Calm - N/A   Mostly Cloudy
7:53 AM 71.1 °F 68.0 °F 90% 29.99 in 10.0 mi NNE 3.5 mph - N/A   Mostly Cloudy
8:53 AM 73.0 °F 69.1 °F 87% 30.01 in 10.0 mi Calm Calm - N/A   Mostly Cloudy
9:53 AM 78.1 °F 69.1 °F 74% 30.01 in 10.0 mi Calm Calm - N/A   Scattered Clouds
10:53 AM 79.0 °F 68.0 °F 69% 30.00 in 10.0 mi South 3.5 mph - N/A   Mostly Cloudy
11:53 AM 78.1 °F 66.9 °F 68% 29.98 in 10.0 mi SE 5.8 mph - N/A   Mostly Cloudy
12:53 PM 78.1 °F 69.1 °F 74% 29.95 in 10.0 mi SSE 5.8 mph - N/A   Mostly Cloudy
1:53 PM 79.0 °F 70.0 °F 74% 29.92 in 10.0 mi SSE 6.9 mph - N/A   Mostly Cloudy
2:53 PM 78.1 °F 70.0 °F 76% 29.92 in 10.0 mi SSE 8.1 mph - N/A   Scattered Clouds
3:53 PM 78.1 °F 70.0 °F 76% 29.92 in 10.0 mi SSE 6.9 mph - N/A   Scattered Clouds
4:53 PM 77.0 °F 70.0 °F 79% 29.92 in 10.0 mi SSE 5.8 mph - N/A   Scattered Clouds
5:53 PM 75.9 °F 69.1 °F 79% 29.94 in 10.0 mi SE 3.5 mph - N/A   Mostly Cloudy
6:53 PM 75.0 °F 69.1 °F 82% 29.95 in 10.0 mi Variable 3.5 mph - N/A   Mostly Cloudy
7:53 PM 75.0 °F 66.0 °F 73% 29.97 in 10.0 mi North 3.5 mph - N/A   Mostly Cloudy
8:53 PM 73.9 °F 66.9 °F 79% 29.98 in 10.0 mi NW 3.5 mph - N/A   Scattered Clouds
9:53 PM 73.9 °F 66.9 °F 79% 30.00 in 10.0 mi NW 3.5 mph - N/A   Mostly Cloudy
10:53 PM 72.0 °F 68.0 °F 87% 29.99 in 10.0 mi Calm Calm - N/A   Scattered Clouds
11:53 PM 72.0 °F 68.0 °F 87% 29.99 in 10.0 mi NW 3.5 mph - N/A   Scattered Clouds